STARLINK-32449, 61670

Orbit data source: Space-Track

STARLINK-32449, 61670 is a payload satellite owned by SpaceX/Seattle (US) in LEO that was launched on Sat, 26 Oct 2024 UTC via an FALCON 9 launch vehicle from the Air Force Eastern Test Range (AFETR). Payloads include a variety of satellites, spacecraft, and rockets equipped with specific instruments for various scientific and technological missions. These include communications satellites like Starlink; space stations such as the ISS; scientific satellites like the Hubble; Earth observation satellites from companies like Planet Labs, Umbra, and HawkEye 360; GPS; miniature CubeSats for education and research; and military/defense satellites.

Loading next visibility...
STARLINK-32449 details
Identifier
61670, 2024-193K
Orbit
LEO
Last TLE update15 hours ago
Origin
Flag of USSpaceX/Seattle (US)
ManufacturerSpaceX/Seattle
MissionOperational spacecraft
Bus & MotorSTARLINK V2M, Unknown motor
Mass730 kg wet, ~700 kg dry
Launch date (UTC)
2024-10-26 (2 months ago)
Launch vehicle
FALCON 9
Launch site
Air Force Eastern Test Range (AFETR)
Object type
Payload
Rocket body
Debris
Shape & HBRUnknown
Radar Cross SectionLarge (>1 m²)

Expand to show TLE details & history

TLE from 15 hours ago
0 STARLINK-32449
1 61670U 24193K   24361.22579225 -.00000068  00000-0  82741-5 0  9991
2 61670  53.1608 329.9247 0001053 125.4117 234.6986 15.39611360  9362
Epoch: 2024-12-26T05:25Z
Definitive object data (Epoch: 2024-12-26T05:25:08.45Z)
Latitude-0.00004°
Longitude153.43122°
Altitude448.577 km
Speed7.644 km/s
True Right ascension21h 59m 41s
True Declination0° 00' 00"
Sunlit
Object was in daylight at TLE epoch
Visualization TLE readout
Latitude-53.3109°
Longitude59.69745°
Altitude466.363 km
Speed7.633 km/s
Apparent Right ascension11h 19m 19s
Apparent Declination-63° 19' 33"
Sunlit
Object is in daylight
Visualization observer readout
Local Sidereal Time19:59:15
Azimuth214.512° SW
Elevation-52.618°
Doppler factor1
Orbital elements
Apogee altitude448.234 km
Perigee altitude446.796 km
Semi-major axis6,825.652 km
Eccentricity0.0001053
Inclination53.1608°
RAAN329.9247°
Arg. of periapsis125.4117°
True anomaly234.68875°
Mean anomaly234.6986°
Eccentric anomaly234.69368°
Mean motion3.84881 °/min
BSTAR0.0000082741
Orbital period93.54 mins
Loading maneuver chart data...
Loading historical data...
Loading historical data...
Loading historical data...
Loading historical data...
Loading historical data...
Loading historical data...
Loading historical data...

STARLINK-32449 Visibility forecast

Observer location: undefined°, undefined

Span
Click to sort rows by Start time (UTC) header in descending order
Start Az.
Max El. time (UTC)
Max El. Az.
Max El.
End time (UTC)
End Az.
6 mins2024-12-27 00:16:23.839Z200.183° SSW2024-12-27 00:19:23.839Z130.789° SE31.139°2024-12-27 00:22:23.839Z66.154° ENE
4 mins2024-12-27 01:55:23.839Z294.363° NW2024-12-27 01:56:23.839Z321.4° NNW24.356°2024-12-27 01:59:23.839Z28.068° NE
4 mins2024-12-27 06:50:23.839Z349.309° N2024-12-27 06:51:23.839Z19.726° NNE28.427°2024-12-27 06:54:23.839Z94.62° ESE
4 mins2024-12-27 08:27:23.839Z269.483° W2024-12-27 08:29:23.839Z213.181° SW24.03°2024-12-27 08:31:23.839Z173.679° S
|